Location: Bailen
(14.1842°N, 120.7958°E)
Time: 17:22:21
(UTC+00:00)

Cosmos 1452 Rocket - Pass Details

Date: 12 January 2026
Orbit: 762 x 771 km, 74.1° (Epoch: 17 February)

Event Time Altitude Azimuth Distance (km) Brightness Sun altitude
Exits shadow 21:22:27 - 347° (NNW) 3,009 6.3 -14.9°
Reaches altitude 10° 21:24:15 10° 347° (NNW) 2,307 5.7 -14.5°
Maximum altitude 21:29:30 90° 265° (W) 772 3.5 -13.3°
Drops below altitude 10° 21:34:44 10° 168° (SSE) 2,301 6.4 -12.1°
Sets 21:37:06 0° 168° (SSE) 3,226 7.2 -11.6°
